Miscellaneous Local Product
Issued by NWS North Platte, NE

Home | Current Version | Previous Version | Graphics & Text | Print | Product List | Glossary On
Versions: 1 2 3 4 5 6 7 8 9 10 11 12 13 14 15 16 17 18 19 20 21 22 23 24 25 26 27 28 29 30 31 32 33 34 35 36 37 38 39 40 41 42 43 44 45 46 47 48 49 50
726
AXUS43 KLBF 281010
MISLBF


WESTERN AND NORTH CENTRAL NEBRASKA HOURLY WEATHER ROUNDUP
NATIONAL WEATHER SERVICE NORTH PLATTE NE
500 AM CDT TUE MAR 28 2017

NOTE: "FAIR" INDICATES FEW OR NO CLOUDS BELOW 12,000 FEET WITH NO
SIGNIFICANT WEATHER AND/OR OBSTRUCTIONS TO VISIBILITY.

NOTE: STATIONS NOT REPORTING VARIABLES SUCH AS SKY/WEATHER OR
PRESSURE ARE PROVIDED BY RAWS AND APRS NETWORKS AND ARE NOT UNDER
NATIONAL WEATHER SERVICE QUALITY CONTROL.

...OBSERVATIONS IN AND NEAR THE EASTERN PANHANDLE OF NEBRASKA...

CITY           SKY/WX    TMP DP  RH WIND       PRES   REMARKS
PINE RIDGE     LGT RAIN  49  46  90 S6        29.92R
CHADRON        LGT RAIN  44  42  93 CALM      29.92R FOG
ALLIANCE       RAIN      45  44  97 S8        29.90S FOG
SIDNEY         LGT RAIN  44  42  93 E9        29.88F
CRESCENT LAKE    N/A     44  44 100 S6          N/A
$$

...OBSERVATIONS IN NORTHERN NEBRASKA AND FAR SOUTHERN SOUTH DAKOTA...

CITY           SKY/WX    TMP DP  RH WIND       PRES   REMARKS
WINNER         CLOUDY    47  40  76 SE12      29.98F
VALENTINE      CLOUDY    46  42  86 E3        29.97S
THEDFORD       CLOUDY    42  41  95 SE3       29.96R
AINSWORTH      CLOUDY    44  43  94 S5        29.98R
O`NEILL        CLOUDY    43  41  94 SE6       30.00F
ORD            FOG       39  38  96 SE6       29.99S VSB 3/4 WCI  35
BROKEN BOW     FOG       42  40  92 SE8       29.97R VSB 3/4
VALENTINE NWR    N/A     44  42  92 SE7         N/A
HALSEY           N/A     42  41  98 SE5         N/A
BUTTE            N/A     42  39  90 E7          N/A
CHAMBERS         N/A     39  37  92 E3          N/A
EWING            N/A     39  37  92 CALM        N/A
$$

...OBSERVATIONS IN SOUTHWEST NEBRASKA AND FAR NORTHEAST COLORADO...

CITY           SKY/WX    TMP DP  RH WIND       PRES   REMARKS
WRAY           DRIZZLE   46  43  87 SE14      29.88F
HOLYOKE        LGT RAIN  46  43  87 SE9       29.90S
IMPERIAL       CLOUDY    46  42  86 S6        29.92R
OGALLALA       RAIN      47  44  89 S5        29.92S
NORTH PLATTE   CLOUDY    43  41  93 E9        29.94S
MCCOOK         CLOUDY    45  44  97 SE8       29.94S
LEXINGTON      FOG       42  40  95 SE5       29.98R VSB 1/2
STAPLETON        N/A     40  39  95 CALM        N/A
GOTHENBURG       N/A     43  42  95 SE5         N/A
CALLAWAY         N/A     41  40  96 S12         N/A
$$

...OBSERVATIONS IN CENTRAL LINCOLN COUNTY AREA...

CITY           SKY/WX    TMP DP  RH WIND       PRES   REMARKS
N.P. AIRPORT   CLOUDY    43  41  93 E9        29.94S
N.P. DOWNTOWN    N/A     44  41  89 CALM        N/A
N.P. SOUTHEAST   N/A     44  41  89 SE3         N/A
N.P. HILLCREST   N/A     43  41  93 SE7         N/A
$$

...SOME OBSERVATIONS FROM AROUND THE REGION...

CITY           SKY/WX    TMP DP  RH WIND       PRES   REMARKS
DENVER         CLOUDY    45  40  82 W8        29.81S
LIMON          CLOUDY    38  36  92 SE8       29.83F WCI  32
ASPEN          FLURRIES  32  32 100 CALM      29.85F
LARAMIE        MIX PCPN  34  34 100 NW7       29.87S FOG     WCI  28
CASPER         CLOUDY    40  35  83 CALM      29.90R
CHEYENNE       CLOUDY    39  37  92 N12       29.85F WCI  32
SCOTTSBLUFF    RAIN      47  43  86 NE7       29.88S
GRAND ISLAND   CLEAR     37  37 100 SE6       30.02R FOG     WCI  32
OMAHA          CLOUDY    38  33  82 N6        30.05S WCI  33
SIOUX FALLS    CLEAR     33  33 100 CALM      30.06R
PIERRE         CLOUDY    38  33  82 E9        29.97F WCI  31
RAPID CITY     CLOUDY    40  33  76 N9        29.93F WCI  34
BISMARCK       CLEAR     30  27  88 E3        30.05R
KANSAS CITY    CLOUDY    48  47  96 NE9       30.01F
HILL CITY      CLOUDY    44  44 100 CALM      29.97R FOG
WICHITA        CLOUDY    50  45  83 E10       29.98R
DODGE CITY     CLOUDY    45  44  97 SE14      29.95S FOG
OKLAHOMA CITY  PTCLDY    49  46  90 E12       29.92F
DALLAS         CLOUDY    63  56  78 E8        29.85S
AMARILLO       CLEAR     48  44  86 SE12      29.87S
$$




USA.gov is the U.S. government's official web portal to all federal, state and local government web resources and services.